Regional Weather Roundup
Issued by NWS New Orleans/Baton Rouge, LA

Home | Current Version | Previous Version | Text Only | Print | Product List | Glossary On
Versions: 1 2 3 4 5 6 7 8 9 10 11 12 13 14 15 16 17 18 19 20 21 22 23 24 25 26 27 28 29 30 31 32 33 34 35 36 37 38 39 40 41 42 43 44 45 46 47 48 49 50
000
ASUS44 KLIX 300811
RWRLIX
NEW ORLEANS REGIONAL WEATHER ROUNDUP
NATIONAL WEATHER SERVICE NEW ORLEANS LA
300 AM CDT TUE JUN 30 2015

NOTE: "FAIR" INDICATES FEW OR NO CLOUDS BELOW 12,000 FEET WITH NO
      SIGNIFICANT WEATHER AND/OR OBSTRUCTIONS TO VISIBILITY.
      SKY/WX - SKY CONDITION AND SIGNIFICANT WEATHER.
      TMP - AIR TEMPERATURE.     DP    - DEWPOINT TEMPERATURE.
      RH  - RELATIVE HUMIDITY.   PRES  - PRESSURE.
      HI  - HEAT INDEX.          WCI   - WIND CHILL INDEX.

*  THESE STATIONS ARE NOT NWS OR FAA STATIONS AND ARE NOT UNDER
   NWS QUALITY CONTROL.

LAZ038-040-048-061>063-065>067-069-300900-
SOUTHEAST LOUISIANA

CITY           SKY/WX    TMP DP  RH WIND       PRES   REMARKS
N.O. AUDUBON     N/A     79  78  98 MISG        N/A
N.O. INTL ARPT CLOUDY    78  70  76 SW7       30.04F
N.O. LAKEFRONT CLOUDY    83  72  69 SW13      30.03F
N.O. DOWNTOWN*   N/A     82  73  74 SW5       30.05F
RESERVE*         N/A     76  71  84 SW3       30.04F
SLIDELL        MOCLDY    79  69  71 VRB3      30.01F
BATON ROUGE    PTCLDY    72  68  87 S5        30.02F
BOOTHVILLE     MOCLDY    83  76  79 W10       30.07S
BELLE CHASSE   MOCLDY    78  75  90 SW6       30.04F
BOGALUSA*      LGT RAIN  74  69  82 CALM      30.03F
GALLIANO*      PTSUNNY   79  75  88 CALM      30.06F
NEW ROADS*       N/A    N/A N/A N/A S5        30.02F
GONZALES*        N/A     73  69  87 CALM      30.04S
HAMMOND*       MOCLDY    73  64  73 SW6       30.02F
HOUMA*         MOCLDY    76  75  97 CALM      30.05F
PORT FOURCHON* MOSUNNY   82  75  78 SW8       30.06F

$$

MSZ070-080>082-300900-
SOUTHERN MISSISSIPPI

CITY           SKY/WX    TMP DP  RH WIND       PRES   REMARKS
MCCOMB         CLOUDY    70  68  93 W3        29.96F
GULFPORT       MOCLDY    80  76  87 SW6       30.02S
BILOXI         MOCLDY    81  77  89 SW12      30.02F
PASCAGOULA     CLOUDY    80  77  90 VRB6      30.03S

$$

COASTAL OBSERVATIONS
LAKE AND NEARSHORE STATIONS

STATION/POSITION TIME  TEMP    WIND        PRES    WAVE
                       AIR SEA DIR/SP/G            HT/PER
                 (UTC) (F)     (DEG/KT/KT) (MB)    (FT/S)
PASCAGOULA       0700   82     240/ 14/ 18 1016.5
WAVELAND YACHT   0700   80 84  220/  3/  4 1016.8
GRAND ISLE       0700   83 85  260/  8/ 12 1018.2
SOUTHWEST PASS   0700   83 83  260/ 17/ 18 1018.8
NEW CANAL        0700   81 84  230/  5/  8 1016.6
SHELL BEACH      0700   79 83  240/  9/ 10 1017.1

OFFSHORE STATIONS

STATION/POSITION TIME  TEMP    WIND        PRES    WAVE
                       AIR SEA DIR/SP/G            HT/PER
                 (UTC) (F)     (DEG/KT/KT) (MB)    (FT/S)
64 S DAUPHIN ISL 0750   83 83  260/ 12/ 14 1018.4    2/ 4

$$



USA.gov is the U.S. government's official web portal to all federal, state and local government web resources and services.